2024-169C (61191 NORAD) Tracking and Keplerian Element Data

This shows tracking and keplerian element data for the satellite.

Feedback or suggestion? Click here.




ElementValue
Catalog61191
Name2024-169C
Epoch Orbit342
Epoch Day286.8884784
Epoch Year2024
RAAN12.0773
Inclination97.5941
Eccentricity0.0010275
Argument of Perigee187.3924
Mean Anonmoly172.7156
Mean Motion15.09929367
Decay Rate0.00015037
L11 61191U 24169C 24286.88847840 .00015037 00000+0 92886-3 0 9990
L22 61191 97.5941 12.0773 0010275 187.3924 172.7156 15.09929367 3423



Live tracking and technical data element details for 2024-169C (NORAD 61191). 2024-169C can be tracked NOW for your location showing map with azimuth and elevation plus other details from your city location.







IsCatalogInMostPopularTable: catalog: 61191, numindb: 23
Update: records affected: 1



GetName: 61191 2024-169C

Hit Count: updated at: Wed, 04 Dec 2024 10:22:04 GMT